This is the latest recevied weather packets stored in our database for station/object K3RUP-1. If no packets are shown the sender has not sent any weather packets the latest 10 day(s).
| Time | Temp. | Humidity | Pressure | Rain* | Wind** | Luminosity | Snow |
|---|---|---|---|---|---|---|---|
| 1777984198 | 18.89° C | 61% | 1011.5 hPa | 0 mm | - | 95 W/m² | - |
| 1777983896 | 18.89° C | 62% | 1011.4 hPa | 0 mm | - | 61 W/m² | - |
| 1777983593 | 18.89° C | 62% | 1011.5 hPa | 0 mm | - | 53 W/m² | - |
| 1777983289 | 18.33° C | 61% | 1011.5 hPa | 0 mm | - | 42 W/m² | - |
| 1777982985 | 18.33° C | 61% | 1011.4 hPa | 0 mm | - | 48 W/m² | - |
| 1777982682 | 17.78° C | 64% | 1011.6 hPa | 0 mm | - | 65 W/m² | - |
| 1777982381 | 17.78° C | 64% | 1011.4 hPa | 0 mm | - | 63 W/m² | - |
| 1777982078 | 17.78° C | 64% | 1011.2 hPa | 0 mm | - | 37 W/m² | - |
| 1777981776 | 17.22° C | 65% | 1011.4 hPa | 0 mm | - | 36 W/m² | - |
| 1777981472 | 17.22° C | 65% | 1011.4 hPa | 0 mm | - | 30 W/m² | - |
| 1777981168 | 16.67° C | 66% | 1011.3 hPa | 0 mm | - | 32 W/m² | - |
| 1777980865 | 17.22° C | 68% | 1011.2 hPa | 0 mm | - | 29 W/m² | - |
| 1777980560 | 17.22° C | 64% | 1011.3 hPa | 0 mm | - | 30 W/m² | - |
| 1777980259 | 17.22° C | 65% | 1011.4 hPa | 0 mm | - | 34 W/m² | - |
| 1777979954 | 16.67° C | 68% | 1011 hPa | 0 mm | - | 36 W/m² | - |
| 1777979649 | 16.67° C | 67% | 1011.1 hPa | 0 mm | - | 40 W/m² | - |
| 1777979346 | 16.67° C | 66% | 1011 hPa | 0 mm | - | 42 W/m² | - |
| 1777979043 | 16.11° C | 67% | 1010.8 hPa | 0 mm | - | 38 W/m² | - |
| 1777978739 | 16.11° C | 69% | 1011.1 hPa | 0 mm | - | 32 W/m² | - |
| 1777978436 | 16.11° C | 68% | 1010.7 hPa | 0 mm | - | 27 W/m² | - |
| 1777978132 | 16.11° C | 68% | 1010.6 hPa | 0 mm | - | 19 W/m² | - |
| 1777977830 | 16.11° C | 67% | 1010.7 hPa | 0 mm | - | 15 W/m² | - |
| 1777977525 | 16.67° C | 66% | 1010.7 hPa | 0 mm | - | 12 W/m² | - |
| 1777977223 | 16.11° C | 66% | 1010.9 hPa | 0 mm | - | 10 W/m² | - |
| 1777976921 | 16.67° C | 66% | 1010.8 hPa | 0 mm | - | 9 W/m² | - |
* Rain latest hour (hover to see other rain measurements)
** Current wind speed in m/s (hover to see current wind gust speed)